DW3560 Weather Reports


time (UTC)temp
F
wind
direction
speed
knots
gust
knots
rain 1hr
in
rain 24hr
in
rain mn
in
humidity
%
barometer
mb
20200407042503 44 42 0.0 1.7 0.00 0.49 0.49 94 1015.0
20200407042003 44 42 0.9 2.6 0.00 0.49 0.49 94 1014.9
20200407041505 44 42 1.7 3.5 0.00 0.49 0.49 94 1014.8
20200407041004 44 41 0.9 3.5 0.00 0.49 0.49 94 1014.9
20200407040505 44 41 0.9 2.6 0.00 0.49 0.49 94 1014.7
20200407040003 44 8 0.9 3.5 0.00 0.49 0.49 94 1014.7
20200407035503 44 348 0.0 3.5 0.00 0.49 0.49 94 1014.6
20200407035003 44 340 0.9 1.7 0.00 0.49 0.49 94 1014.5
20200407034503 44 340 0.9 1.7 0.00 0.49 0.49 94 1014.5
20200407034003 44 340 0.0 1.7 0.00 0.49 0.49 94 1014.5
20200407033503 44 340 0.0 0.9 0.00 0.50 0.49 94 1014.4
20200407033003 44 0 0.0 0.0 0.00 0.50 0.49 94 1014.4
20200407032503 44 0 0.0 0.0 0.00 0.50 0.49 93 1014.3
20200407032003 44 0 0.0 0.0 0.00 0.50 0.49 94 1014.3
20200407031503 44 340 0.0 0.9 0.00 0.50 0.49 93 1014.1
20200407031002 44 340 0.0 0.9 0.00 0.50 0.49 93 1014.0
20200407030502 44 340 0.0 0.9 0.00 0.50 0.49 93 1013.8
20200407030003 44 340 0.0 0.9 0.00 0.50 0.49 93 1013.9
20200407025503 44 340 0.0 1.7 0.00 0.50 0.49 93 1013.7
20200407025004 44 339 0.9 3.5 0.00 0.50 0.49 93 1013.7
20200407024505 44 339 0.9 3.5 0.00 0.50 0.49 93 1013.7
20200407024003 45 333 0.0 1.7 0.00 0.50 0.49 93 1013.7
20200407023503 45 333 0.0 1.7 0.00 0.50 0.49 93 1013.6
20200407023003 45 333 0.9 4.3 0.00 0.50 0.49 93 1013.6
20200407022506 45 333 0.9 4.3 0.00 0.50 0.49 93 1013.6
20200407022004 45 333 0.9 2.6 0.00 0.50 0.49 93 1013.4
20200407021504 45 334 0.9 2.6 0.00 0.50 0.49 93 1013.5
20200407021005 45 332 0.9 3.5 0.00 0.50 0.49 93 1013.3
20200407020505 45 329 0.9 3.5 0.00 0.50 0.49 93 1013.4
20200407020004 45 325 0.9 3.5 0.00 0.50 0.49 93 1013.3
20200407015505 45 328 1.7 4.3 0.00 0.50 0.49 92 1013.2
20200407015004 45 325 1.7 4.3 0.00 0.50 0.49 92 1013.1
20200407014503 45 319 0.9 4.3 0.00 0.50 0.49 92 1013.0
20200407014005 45 319 0.9 4.3 0.00 0.50 0.49 92 1012.9
20200407013504 46 321 1.7 4.3 0.00 0.50 0.49 91 1012.9
20200407013003 46 325 0.9 4.3 0.00 0.50 0.49 91 1013.1
20200407012504 46 317 0.9 4.3 0.00 0.50 0.49 90 1013.1
20200407012003 46 265 0.9 3.5 0.00 0.50 0.49 90 1012.9
20200407011503 46 257 0.9 5.2 0.00 0.50 0.49 89 1012.7
20200407011003 47 252 0.9 5.2 0.00 0.50 0.49 89 1012.7
20200407010504 47 252 0.9 3.5 0.00 0.50 0.49 89 1012.6
20200407010004 47 254 0.9 2.6 0.00 0.50 0.49 89 1012.5
20200407005504 47 243 0.9 6.1 0.00 0.50 0.49 89 1012.4
20200407005003 47 241 1.7 6.1 0.00 0.50 0.49 87 1012.5
20200407004504 47 243 1.7 5.2 0.00 0.50 0.49 87 1012.4
20200407004003 48 254 1.7 6.1 0.00 0.50 0.49 87 1012.5
20200407003504 48 262 1.7 6.1 0.00 0.50 0.49 89 1012.3
20200407003003 48 250 0.9 5.2 0.00 0.50 0.49 88 1012.3
20200407002503 48 216 1.7 6.1 0.00 0.50 0.49 88 1012.2
20200407002003 47 202 1.7 6.1 0.00 0.50 0.49 85 1012.2
20200407001505 48 199 1.7 5.2 0.00 0.50 0.49 87 1012.2
20200407001005 47 208 1.7 6.1 0.00 0.50 0.49 90 1012.0
20200407000506 48 223 2.6 6.1 0.00 0.50 0.49 90 1011.9
20200407000003 48 242 1.7 6.1 0.00 0.50 0.49 90 1012.0
20200406235504 48 254 1.7 6.1 0.00 0.50 0.49 91 1011.9
20200406235003 48 250 2.6 6.1 0.00 0.50 0.49 91 1012.0
20200406234503 48 235 1.7 6.1 0.00 0.50 0.49 91 1011.9
20200406234004 48 193 0.9 4.3 0.00 0.50 0.49 92 1011.8
20200406233504 47 225 1.7 6.1 0.00 0.50 0.49 92 1011.9
20200406233003 48 225 1.7 6.1 0.00 0.50 0.49 94 1011.8
20200406232504 47 206 1.7 5.2 0.00 0.50 0.49 94 1011.7
20200406232003 47 193 2.6 5.2 0.00 0.50 0.49 95 1011.8
20200406231503 46 200 2.6 4.3 0.01 0.51 0.49 95 1011.7
20200406231004 46 194 1.7 5.2 0.01 0.51 0.49 94 1011.7
20200406230503 46 180 2.6 6.1 0.01 0.51 0.49 94 1011.6
20200406230004 46 200 2.6 6.1 0.01 0.51 0.49 96 1011.7
20200406225503 45 200 2.6 5.2 0.01 0.51 0.49 95 1011.7
20200406225003 45 196 2.6 5.2 0.01 0.51 0.49 95 1011.8
20200406224503 45 202 2.6 5.2 0.02 0.52 0.49 95 1011.6
20200406224003 44 201 3.5 4.3 0.02 0.52 0.49 95 1011.6
20200406223504 44 204 2.6 5.2 0.02 0.52 0.49 95 1011.6
20200406223003 44 208 2.6 5.2 0.03 0.52 0.49 94 1011.5
20200406222503 44 209 1.7 4.3 0.04 0.52 0.49 94 1011.6
20200406222005 44 199 1.7 5.2 0.05 0.52 0.49 95 1011.6
20200406221505 44 181 2.6 5.2 0.05 0.52 0.48 94 1011.6
20200406221005 44 168 1.7 5.2 0.07 0.52 0.48 94 1011.7
20200406220505 44 161 1.7 4.3 0.08 0.52 0.48 94 1011.6
20200406220004 44 164 1.7 4.3 0.11 0.52 0.48 94 1011.5
20200406215503 44 182 1.7 4.3 0.12 0.53 0.48 94 1011.5
20200406215004 43 183 1.7 3.5 0.14 0.53 0.48 94 1011.4
20200406214503 44 179 1.7 3.5 0.17 0.52 0.47 93 1011.4
20200406214003 44 170 1.7 4.3 0.20 0.52 0.47 93 1011.6
20200406213504 43 150 2.6 6.1 0.24 0.53 0.47 93 1011.5
20200406213003 43 137 2.6 6.1 0.26 0.52 0.46 93 1011.4
20200406212503 43 138 1.7 5.2 0.25 0.52 0.45 93 1011.5
20200406212003 43 134 1.7 5.2 0.26 0.51 0.44 92 1011.4
20200406211503 43 122 2.6 6.1 0.26 0.49 0.42 92 1011.4
20200406211004 43 117 3.5 8.7 0.27 0.48 0.41 92 1011.5
20200406210503 43 119 5.2 11.3 0.29 0.47 0.40 92 1011.6
20200406210003 43 125 3.5 11.3 0.28 0.44 0.38 92 1011.6
20200406205504 44 135 1.7 6.1 0.30 0.43 0.36 92 1011.6
20200406205004 44 145 1.7 4.3 0.31 0.41 0.33 92 1011.6
20200406204504 44 164 1.7 6.1 0.29 0.38 0.30 92 1011.6
20200406204004 44 176 3.5 7.0 0.26 0.35 0.27 92 1011.6
20200406203504 44 172 3.5 7.8 0.22 0.30 0.22 91 1011.6
20200406203005 44 177 3.5 7.8 0.20 0.28 0.20 91 1011.4
20200406202503 45 165 3.5 7.0 0.20 0.29 0.20 91 1011.3
20200406202003 45 132 3.5 7.0 0.18 0.27 0.18 91 1011.4
20200406201503 44 113 1.7 3.5 0.16 0.25 0.16 91 1011.3
20200406201005 44 107 1.7 5.2 0.13 0.22 0.13 91 1011.1
20200406200505 44 89 1.7 5.2 0.11 0.20 0.11 90 1011.1
20200406200004 44 64 1.7 5.2 0.09 0.20 0.09 90 1011.1
20200406195503 44 48 1.7 5.2 0.06 0.18 0.06 89 1011.1
20200406195004 45 44 1.7 5.2 0.02 0.17 0.02 89 1011.1
20200406194503 45 36 1.7 4.3 0.01 0.16 0.01 88 1011.0
20200406194003 46 13 1.7 4.3 0.00 0.15 0.00 87 1011.0
20200406193503 46 357 1.7 3.5 0.00 0.15 0.00 86 1010.9
20200406193004 47 336 1.7 3.5 0.00 0.15 0.00 86 1010.9
20200406192504 48 27 1.7 4.3 0.00 0.15 0.00 85 1010.7
20200406192004 48 71 1.7 6.1 0.00 0.15 0.00 83 1010.7
20200406191503 48 81 1.7 6.1 0.00 0.15 0.00 83 1010.7
20200406191003 48 57 0.9 4.3 0.00 0.15 0.00 83 1010.6
20200406190503 48 39 1.7 4.3 0.00 0.15 0.00 84 1010.7
20200406190003 47 57 2.6 7.8 0.00 0.15 0.00 84 1010.6
20200406185504 47 43 1.7 7.8 0.00 0.16 0.00 85 1010.6
20200406185003 47 17 1.7 4.3 0.00 0.16 0.00 86 1010.7
20200406184504 47 12 2.6 5.2 0.00 0.17 0.00 86 1010.6
20200406184003 46 23 1.7 5.2 0.00 0.18 0.00 87 1010.7
20200406183503 47 34 0.9 2.6 0.00 0.19 0.00 88 1010.6
20200406183004 46 35 0.9 1.7 0.00 0.20 0.00 89 1010.6
20200406182503 46 35 0.9 2.6 0.00 0.21 0.00 89 1010.6
20200406182004 46 30 0.9 2.6 0.00 0.22 0.00 89 1010.5
20200406181504 46 15 1.7 2.6 0.00 0.23 0.00 90 1010.5
20200406181003 46 354 1.7 3.5 0.00 0.24 0.00 91 1010.5
20200406180503 46 284 1.7 3.5 0.00 0.25 0.00 92 1010.5
20200406180004 46 237 1.7 3.5 0.00 0.26 0.00 91 1010.3
20200406175504 46 214 1.7 3.5 0.00 0.26 0.00 92 1010.2
20200406175003 45 194 0.9 2.6 0.00 0.28 0.00 91 1010.3
20200406174503 45 192 0.9 1.7 0.00 0.37 0.00 91 1010.2
20200406174003 45 192 0.9 2.6 0.00 0.39 0.00 90 1010.2
20200406173503 45 189 1.7 2.6 0.00 0.39 0.00 91 1010.2
20200406173003 45 184 1.7 2.6 0.00 0.40 0.00 90 1010.1
20200406172503 45 181 0.9 1.7 0.00 0.40 0.00 89 1010.0
20200406172004 45 181 0.9 1.7 0.00 0.40 0.00 88 1010.0
20200406171504 45 181 0.9 1.7 0.00 0.40 0.00 88 1009.9
20200406171005 45 181 0.9 1.7 0.00 0.40 0.00 89 1009.9
20200406170503 45 181 0.0 1.7 0.00 0.40 0.00 88 1009.8
20200406170003 45 181 0.0 1.7 0.00 0.40 0.00 88 1009.7
20200406165504 45 181 0.0 1.7 0.00 0.40 0.00 89 1009.8
20200406165004 45 181 0.0 1.7 0.00 0.40 0.00 89 1009.6
20200406164504 45 181 0.0 1.7 0.00 0.40 0.00 89 1009.6
20200406164005 45 181 0.9 1.7 0.00 0.40 0.00 90 1009.5
20200406163504 45 181 0.9 1.7 0.00 0.40 0.00 89 1009.4
20200406163005 45 181 0.0 1.7 0.00 0.40 0.00 88 1009.4
20200406162503 45 181 0.0 1.7 0.00 0.40 0.00 89 1009.3
20200406162005 45 181 0.9 2.6 0.00 0.40 0.00 90 1009.4
20200406161504 45 181 0.9 2.6 0.00 0.40 0.00 90 1009.1
20200406161005 45 181 0.9 1.7 0.00 0.40 0.00 89 1009.2
20200406160506 45 181 0.0 1.7 0.00 0.40 0.00 90 1009.0
20200406160004 44 181 0.9 1.7 0.00 0.40 0.00 89 1009.0
20200406155504 44 181 0.9 2.6 0.00 0.40 0.00 89 1008.9
20200406155003 44 181 0.9 2.6 0.00 0.41 0.00 89 1008.9
20200406154503 44 181 0.9 2.6 0.00 0.41 0.00 88 1008.9
20200406154004 44 181 0.9 2.6 0.00 0.41 0.00 89 1008.9
20200406153504 44 181 0.9 2.6 0.00 0.41 0.00 88 1008.8
20200406153004 44 181 0.0 0.9 0.00 0.41 0.00 89 1008.8
20200406152504 44 181 0.0 0.9 0.00 0.41 0.00 90 1008.7
20200406152004 44 181 0.0 0.9 0.00 0.41 0.00 90 1008.6
20200406151503 44 181 0.0 0.9 0.00 0.42 0.00 89 1008.6
20200406151003 44 181 0.0 0.9 0.00 0.44 0.00 90 1008.6
20200406150503 44 181 0.0 0.9 0.00 0.48 0.00 90 1008.5
20200406150003 44 181 0.0 0.9 0.00 0.50 0.00 90 1008.5
20200406145505 43 181 0.0 0.9 0.00 0.51 0.00 91 1008.4
20200406145004 43 181 0.0 0.9 0.00 0.52 0.00 91 1008.4
20200406144503 43 181 0.0 0.9 0.00 0.52 0.00 91 1008.4
20200406144004 42 0 0.0 0.0 0.00 0.53 0.00 92 1008.3
20200406143504 43 0 0.0 0.0 0.00 0.53 0.00 92 1008.2
20200406143004 42 0 0.0 0.0 0.00 0.53 0.00 92 1008.1
20200406142503 42 181 0.0 0.9 0.00 0.53 0.00 92 1008.2
20200406142004 42 181 0.0 0.9 0.00 0.53 0.00 92 1008.1
20200406141504 42 181 0.0 0.9 0.00 0.53 0.00 92 1008.0
20200406141005 42 181 0.0 0.9 0.00 0.53 0.00 92 1008.0
20200406140505 42 181 0.9 1.7 0.00 0.53 0.00 92 1007.9
20200406140003 42 181 0.9 1.7 0.00 0.53 0.00 92 1007.9
20200406135505 42 181 0.0 1.7 0.00 0.53 0.00 91 1007.9
20200406135004 42 181 0.9 1.7 0.00 0.53 0.00 91 1007.8
20200406134504 42 181 0.0 0.9 0.00 0.53 0.00 91 1007.8
20200406134004 42 181 0.0 0.9 0.00 0.53 0.00 91 1007.7
20200406133504 42 181 0.0 0.9 0.00 0.53 0.00 91 1007.7
20200406133004 42 181 0.0 0.9 0.00 0.53 0.00 91 1007.8
20200406132504 42 181 0.0 0.9 0.00 0.54 0.00 91 1007.8
20200406132003 42 181 0.9 0.9 0.00 0.55 0.00 91 1007.7
20200406131504 42 181 0.0 0.9 0.00 0.56 0.00 91 1007.8
20200406131004 42 181 0.0 1.7 0.00 0.56 0.00 91 1007.7
20200406130504 42 181 0.9 1.7 0.00 0.56 0.00 91 1007.7
20200406130004 42 181 0.9 1.7 0.00 0.56 0.00 91 1007.6
20200406125503 42 181 1.7 2.6 0.00 0.57 0.00 91 1007.6
20200406125003 42 181 1.7 3.5 0.00 0.57 0.00 91 1007.6
20200406124503 42 172 2.6 4.3 0.00 0.57 0.00 91 1007.5
20200406124004 42 142 2.6 4.3 0.00 0.57 0.00 91 1007.5
20200406123504 42 101 1.7 5.2 0.00 0.57 0.00 91 1007.4
20200406123003 42 91 2.6 5.2 0.00 0.57 0.00 91 1007.4
20200406122505 42 83 1.7 5.2 0.00 0.57 0.00 91 1007.3
20200406122004 42 76 1.7 6.1 0.00 0.57 0.00 91 1007.3
20200406121504 42 79 1.7 6.1 0.00 0.57 0.00 90 1007.3
20200406121005 42 86 1.7 3.5 0.00 0.57 0.00 90 1007.3
20200406120504 42 83 1.7 4.3 0.00 0.57 0.00 90 1007.2
20200406120003 42 76 1.7 6.1 0.00 0.57 0.00 90 1007.3
20200406115503 42 73 2.6 6.1 0.00 0.57 0.00 90 1007.3
20200406115004 42 72 2.6 6.1 0.00 0.57 0.00 90 1007.2
20200406114504 42 74 1.7 6.1 0.00 0.57 0.00 89 1007.1
20200406114004 42 75 1.7 3.5 0.00 0.57 0.00 89 1007.1
20200406113503 42 76 1.7 3.5 0.00 0.57 0.00 89 1007.1
20200406113004 42 83 1.7 3.5 0.00 0.57 0.00 89 1007.1
20200406112503 42 95 1.7 2.6 0.00 0.57 0.00 89 1007.2
20200406112003 42 102 0.9 2.6 0.00 0.57 0.00 89 1007.2
20200406111505 42 102 0.9 1.7 0.00 0.57 0.00 89 1007.2
20200406111003 42 102 0.0 2.6 0.00 0.57 0.00 89 1007.3
20200406110504 42 102 1.7 2.6 0.00 0.57 0.00 89 1007.3
20200406110004 42 102 1.7 2.6 0.00 0.57 0.00 89 1007.3
20200406105504 42 102 1.7 2.6 0.00 0.57 0.00 89 1007.3
20200406105003 42 102 1.7 2.6 0.00 0.57 0.00 89 1007.4
20200406104503 42 102 0.9 2.6 0.00 0.57 0.00 89 1007.3
20200406104004 42 102 1.7 3.5 0.00 0.57 0.00 89 1007.3
20200406103505 42 102 1.7 3.5 0.00 0.57 0.00 89 1007.3
20200406103004 42 101 1.7 3.5 0.00 0.57 0.00 89 1007.3
20200406102503 42 100 1.7 3.5 0.00 0.57 0.00 89 1007.3
20200406102003 42 97 2.6 5.2 0.00 0.57 0.00 90 1007.3
20200406101505 42 93 2.6 5.2 0.00 0.57 0.00 90 1007.2
20200406101006 42 90 2.6 3.5 0.00 0.57 0.00 90 1007.2
20200406100505 42 87 2.6 3.5 0.00 0.57 0.00 90 1007.2
20200406100000 42 84 2.6 3.5 0.00 0.57 0.00 90 1007.2
20200406095502 42 82 1.7 2.6 0.00 0.57 0.00 90 1007.2
20200406095001 42 81 1.7 3.5 0.00 0.57 0.00 90 1007.2
20200406094501 42 81 1.7 3.5 0.00 0.57 0.00 89 1007.1
20200406094001 42 81 1.7 3.5 0.00 0.57 0.00 89 1007.2
20200406093500 42 82 1.7 3.5 0.00 0.57 0.00 89 1007.3
20200406093001 42 80 1.7 3.5 0.00 0.57 0.00 89 1007.2
20200406092501 42 78 1.7 3.5 0.00 0.57 0.00 89 1007.2
20200406092001 42 74 1.7 4.3 0.00 0.57 0.00 89 1007.2
20200406091501 42 66 1.7 4.3 0.00 0.57 0.00 89 1007.1
20200406091001 42 69 1.7 3.5 0.00 0.57 0.00 89 1007.1
20200406090501 42 77 1.7 3.5 0.00 0.57 0.00 89 1007.0
20200406090001 42 76 1.7 3.5 0.00 0.57 0.00 89 1007.1
20200406085501 42 76 0.9 2.6 0.00 0.57 0.00 89 1007.0
20200406085001 42 77 0.9 2.6 0.00 0.57 0.00 89 1007.0
20200406084501 42 77 0.9 2.6 0.00 0.57 0.00 89 1007.1
20200406084001 42 75 1.7 3.5 0.00 0.57 0.00 89 1007.1
20200406083501 42 73 1.7 3.5 0.00 0.57 0.00 89 1007.1
20200406083002 42 74 1.7 4.3 0.00 0.57 0.00 89 1007.1
20200406082501 42 79 1.7 4.3 0.00 0.57 0.00 89 1007.0
20200406082002 43 78 1.7 5.2 0.00 0.57 0.00 89 1007.0
20200406081502 43 63 1.7 5.2 0.00 0.57 0.00 89 1007.0
20200406081003 43 49 0.9 2.6 0.00 0.57 0.00 89 1007.1
20200406080503 43 43 1.7 3.5 0.00 0.57 0.00 89 1007.1
20200406080001 43 20 1.7 3.5 0.00 0.57 0.00 89 1007.1
20200406075501 43 351 0.9 2.6 0.00 0.57 0.00 89 1007.0
20200406075001 43 347 1.7 2.6 0.00 0.57 0.00 88 1007.0
20200406074501 43 346 1.7 2.6 0.00 0.57 0.00 89 1007.1
20200406074002 43 342 1.7 2.6 0.00 0.57 0.00 88 1007.1
20200406073502 43 339 1.7 2.6 0.00 0.57 0.00 88 1006.8
20200406073001 43 337 1.7 2.6 0.00 0.57 0.00 88 1006.8
20200406072501 43 337 0.9 2.6 0.00 0.57 0.00 88 1006.7
20200406072001 43 336 0.9 2.6 0.00 0.57 0.00 89 1006.7
20200406071501 43 336 0.0 1.7 0.00 0.57 0.00 89 1006.6
20200406071002 43 336 0.9 2.6 0.00 0.57 0.00 89 1006.6
20200406070500 44 336 0.9 2.6 0.00 0.57 0.00 89 1006.5
20200406070004 44 336 0.9 1.7 0.00 0.57 0.00 90 1006.5
20200406065501 44 336 0.9 2.6 0.00 0.57 0.57 90 1006.5
20200406065001 44 336 0.9 2.6 0.00 0.57 0.57 90 1006.4
20200406064501 44 336 1.7 3.5 0.00 0.57 0.57 90 1006.4
20200406064001 44 334 1.7 3.5 0.00 0.57 0.57 91 1006.3
20200406063501 44 329 1.7 3.5 0.00 0.57 0.57 91 1006.3
20200406063001 44 327 1.7 3.5 0.00 0.57 0.57 91 1006.3
20200406062501 44 324 1.7 3.5 0.00 0.57 0.57 92 1006.2
20200406062001 44 317 1.7 3.5 0.00 0.57 0.57 92 1006.0
20200406061504 44 311 1.7 3.5 0.00 0.57 0.57 92 1006.0
20200406061002 44 310 1.7 3.5 0.00 0.57 0.57 92 1006.0
20200406060503 44 310 1.7 3.5 0.00 0.57 0.57 92 1005.9
20200406060001 44 310 0.9 2.6 0.00 0.57 0.57 93 1005.9
20200406055502 44 310 0.9 1.7 0.00 0.57 0.57 93 1006.0
20200406055001 44 310 0.9 1.7 0.00 0.57 0.57 93 1005.9
20200406054501 44 309 0.9 2.6 0.00 0.57 0.57 93 1005.9
20200406054001 44 309 1.7 2.6 0.00 0.57 0.57 93 1005.8
20200406053500 44 309 0.9 2.6 0.00 0.57 0.57 93 1005.9
20200406053001 44 309 0.9 2.6 0.00 0.59 0.57 94 1005.8
20200406052502 44 303 1.7 2.6 0.00 0.61 0.57 94 1005.8
20200406052001 44 295 0.9 2.6 0.00 0.68 0.57 94 1005.8
20200406051501 44 290 0.9 2.6 0.00 0.70 0.57 94 1005.8
20200406051001 44 264 0.9 2.6 0.00 0.74 0.57 94 1005.9
20200406050501 44 237 0.9 1.7 0.00 0.79 0.57 94 1005.8
20200406050000 44 0 0.0 0.0 0.00 0.82 0.57 94 1005.8
20200406045501 44 237 0.0 1.7 0.00 0.83 0.57 94 1005.7
20200406045002 44 237 0.0 1.7 0.00 0.83 0.57 94 1005.7
20200406044501 44 237 0.0 0.9 0.00 0.84 0.57 94 1005.6
20200406044001 45 237 0.0 2.6 0.00 0.85 0.57 94 1005.5
20200406043501 45 238 0.0 2.6 0.01 0.86 0.57 94 1005.6
20200406043001 45 243 0.9 3.5 0.01 0.87 0.57 94 1005.5